Location: Puketoi
(40.5833°S, 176.0167°E)
Time: 00:34:37
(UTC+00:00)

COSMOS 2455 - Pass Details

Date: 04 October 2023
Orbit: 902 x 907 km, 67.1° (Epoch: 03 December)

Event Time Altitude Azimuth Distance (km) Brightness Sun altitude
Exits shadow 09:39:47 17° 150° (SSE) 2,126 4.9 -34.2°
Drops below altitude 10° 09:41:07 10° 150° (SSE) 2,614 5.4 -34.4°
Sets 09:43:39 0° 150° (SSE) 3,561 6.1 -34.7°
